Regional Weather Roundup
Issued by NWS

Home | Current Version | Previous Version | Graphics & Text | Print | Product List | Glossary On
Versions: 1 2 3 4 5 6 7 8 9 10 11 12 13 14 15 16 17 18 19 20 21 22 23 24 25 26 27 28
000
ASUS45 KCYS 231910
RWRWY

WYOMING REGIONAL WEATHER ROUNDUP
NATIONAL WEATHER SERVICE CHEYENNE WY
1200 PM MST THU FEB 23 2017

NOTE:  "FAIR" INDICATES FEW OR NO CLOUDS BELOW 12,000 FEET
WITH NO SIGNIFICANT WEATHER AND/OR OBSTRUCTIONS TO VISIBILITY.

WYZ001-232000-
YELLOWSTONE NATIONAL PARK

CITY           SKY/WX    TMP DP  RH WIND       PRES   REMARKS
LK YELLOWSTONE   N/A     20   7  57 MISG      29.67R
W YELLOWSTONE  NOT AVBL

$$
WYZ002>013-054>058-071-098>099-232000-
NORTHERN WYOMING

CITY           SKY/WX    TMP DP  RH WIND       PRES   REMARKS
JACKSON        PTSUNNY   27  18  69 N12       29.64R WCI  16
CODY           CLOUDY    24  19  81 N17G28    29.81R WCI  11
GREYBULL       CLOUDY    32  20  61 NW16      29.75R WCI  21
WORLAND        LGT SNOW  28  26  92 NW12      29.76R VSB 3/4 WCI  18
SHERIDAN       CLOUDY    27  23  85 NE9       29.88S WCI  18
BUFFALO        LGT SNOW  26  21  81 N17G23    29.82F VSB 3/4 WCI  13
GILLETTE       CLOUDY    27  24  89 N20       29.81S FOG     WCI  13
HULETT         CLOUDY    27  23  86 MISG      29.84S
NEWCASTLE      LGT SNOW  28  28 100 SW7       29.79R VSB 3/4 WCI  21

$$
WYZ014>020-022>026-101>103-232000-
CENTRAL WYOMING

CITY           SKY/WX    TMP DP  RH WIND       PRES   REMARKS
BIG PINEY      CLOUDY    23  17  78 N17       29.59R WCI   9
PINEDALE       CLOUDY    27  14  59 W7        29.59R WCI  19
DUBOIS         LGT SNOW  21  18  86 SE13      29.62R WCI   9
LANDER         FOG       24  22  91 N14       29.68R VSB 1/4 WCI  12
RIVERTON       SNOW      23  21  92 N18G29    29.69R VSB 1/4 WCI   9
CASPER         SNOW      22  20  92 E21       29.68R VSB 1/2 WCI   6
DOUGLAS        SNOW      21  18  88 E15       29.74S VSB 1/2 WCI   8

$$
WYZ021-027>030-104>119-232000-
SOUTHERN WYOMING

CITY           SKY/WX    TMP DP  RH WIND       PRES   REMARKS
EVANSTON       CLOUDY    21  15  78 SW21      29.64R WCI   5
FORT BRIDGER   LGT SNOW  23  21  93 W20G25    29.66S WCI   8
ROCK SPRINGS   HAZE      22  17  81 N31G43    29.54R VSB 1/4 WCI   4
DIXON            N/A     26  19  74 SW21      29.59S WCI  12
RAWLINS        CLOUDY    24  16  71 E16       29.54R WCI  11
SARATOGA       CLOUDY    27  16  63 NW10      29.54R WCI  17
LARAMIE        CLOUDY    20  13  74 E17G28    29.49R WCI   5
CHEYENNE       LGT SNOW  21  17  84 NE20G26   29.57F VSB 3/4 WCI   6
TORRINGTON     SNOW      24  21  88 N10       29.71S VSB 1/4 WCI  14
PINE BLUFFS    HVY RAIN  25  23  93 N23G30    29.61S WCI  10

$$




USA.gov is the U.S. government's official web portal to all federal, state and local government web resources and services.